Погода Уст-Хайрюзово

Погода Уст-Хайрюзово : погода сейчас, прогноз погоды и архив. Всё, что Вы хотите узнать о погоде Уст-Хайрюзово!

Поиск расширенной информации на нашем сайте:

Другие новости

Новости СМИ2

Главная страница сайта

Новости сайта

03.07.2017

Напоминаем, что на нашем специализированном сайте Метеоцентр.Азия вы можете получить высокодетализированные автоматические прогнозы погоды по пунктам России, СНГ и мира в авиационном формате (включающие направление и скорость ветра, видимость, явления погоды, количество и форму облачности, нижнюю и верхнюю границу облачности).


Погода Уст-Хайрюзово - сегодня

Время (UTC), дата Ветер
(°,м/с) 
Видим.   Явления Облачность Т
(°С)
Тd
(°С)
f(%) Тe
(°С)
Pmin
(гПа)
dP
(гПа)
Po
(мм)
O2
(г/м3)
Тmin Tmax R s Состояние
почвы
06 19.07.18 350 (С) 20000 м    4/0 верхняя 
[Ci fib]
+17.5 +6.7 49 +18  1010.1  -0.7  757  286           
12 19.07.18 120 (ЮВ) 20000 м    5/0 средняя, верхняя 
[Ac trans|Ci fib]
+11.3 +8.4 82 +12  1009.4  -0.6  756  291           
15 19.07.18 030 (СВ) 20000 м    5/0 средняя, верхняя 
[Ac trans|Ci fib]
+11.4 +9.2 86 +12  1009.5  0.1  756  291           
18 19.07.18 120 (ЮВ) 20000 м    9/0 средняя 
[Ac As]
+9.8 +8.4 91 +11  1009.1  -0.4  756  293           
00 20.07.18 250 (З) 20000 м    9/3 1000 м средняя 
[Sc|Ac As]
+16.7 +10.6 67 +19  1009.2  756  285           
03 20.07.18 280 (З) 20000 м    9/4 300 м средняя 
[St|Ac As]
+16.8 +11.9 73 +21  1009.3  0.1  756  285           
06 20.07.18 320 (СЗ) 10 км    10/10 210 м 
[St]
+13.2 +10.2 82 +15  1009.6  0.4  757  289           
09 20.07.18 300 (СЗ) 10 км    10/10 180 м 
[St]
+12 +9 82 +12  1010.2  0.6  757  291    +19.4       
18 20.07.18 040 (СВ) 10 км    10/10 500 м 
[Sc]
+10.3 +8.7 90 +11  1009.7  0.5  757  292           
21 20.07.18 060 (СВ) 10 км    10/10 300 м 
[St]
+12.1 +9.2 82 +13  1009.3  -0.4  756  290  +10        сухая 
00 21.07.18 330 (СЗ) 20000 м    9/6 420 м средняя 
[St|Ac As]
+13.7 +9.5 76 +14  1007.5  -1.8  755  288           
03 21.07.18 360 (С) 20000 м    6/0 средняя 
[Ac trans]
+15.7 +10.2 70 +16  1006  -1.5  754  285           
09 21.07.18 040 (СВ) 4{11}  20000 м    3/0 средняя 
[Ac trans]
+18.8 +10.4 58 +21  1003.5  -0.3  752  282    +19.1       
12 21.07.18 030 (СВ) 20000 м    5/0 средняя 
[Ac trans]
+11.5 +9.1 85 +11  1003.8  0.2  752  289           
15 21.07.18 020 (С) 20000 м    3/0 средняя 
[Ac trans]
+9.6 +7.5 87 +9  1003  -0.7  752  291           
18 21.07.18 030 (СВ) 20000 м    4/0 средняя 
[Ac trans]
+11.9 +8.7 81 +11  1002.3  -0.8  751  288           
21 21.07.18 030 (СВ) 6-10{10}  20000 м    3/0 средняя 
[Ac trans]
+18.7 +10.2 58 +20  1002.7  0.5  751  282  +9.3        сухая 
03 22.07.18 010 (С) 10-15{15}  20000 м    ясно 
+19.1 +11.2 60 +22  1002.3  -0.4  751  281           
06 22.07.18 010 (С) 9-13{16}  20000 м    ясно 
+17.9 +10.8 63 +19  1002.9  0.5  751  282           
12 22.07.18 010 (С) 20000 м    ясно 
+13 +10.2 83 +13  1005.7  1.5             
15 22.07.18 100 (В) 20000 м    ясно 
+13.5 +9.1 75 +14  1005.8  0.1  754  288           
18 22.07.18 130 (ЮВ) 20000 м    3/0 средняя 
[Ac trans]
+13.9 +8.8 71 +15  1006.9  1.1  754  288           
00 23.07.18 330 (СЗ) 20000 м    3/0 средняя 
[Ac trans]
+21.7 +12.2 55 +26  1007.5  0.3  755  280           
03 23.07.18 350 (С) 20000 м    3/1 1000 м верхняя 
[Sc|Ci fib]
+22.1 +11.3 50 +25  1007.1  -0.5  755  279           
06 23.07.18 330 (СЗ) 20000 м    3/0 средняя 
[Ac trans]
+20.8 +11.9 57 +24  1007.6  0.5  755  280           
Время (UTC), дата Ветер
(°,м/с) 
Видим.   Явления Облачность Т
(°С)
Тd
(°С)
f(%) Тe
(°С)
Pmin
(гПа)
dP
(гПа)
Po
(мм)
O2
(г/м3)
Тmin Tmax R s Состояние
почвы

Для получения пояснительной информации подведите курсор к названию столбца.

ПОГОДА Уст-Хайрюзово - архив

Всё, что Вы хотите узнать о погоде Уст-Хайрюзово - удобно и подробно!

Выберите нужную дату (начиная с 1 января 2015* года) и нажмите кнопку "Найти".
Будут отображены архивные сводки погоды по пункту Уст-Хайрюзово, начиная с указанной даты.


Отображать данные в формате CSV (для использования в таблицах Excel)


Внимание! Наш архив погоды предназначен исключительно для личного некоммерческого использования в познавательных целях. Если Вам необходимы официальные справки о состоянии погоды (для производственных, юридических, коммерческих и т.п. целей), обращайтесь в органы Росгидромета.

*Примечание: данная дата относится к архиву по метеостанциям СССР (Россия, СНГ, Балтия).
Архив по метеостанциям Зарубежной Европы и Азии (кроме Китая) хранится 10 дней, по другим регионам земного шара (Китай, Африка, Америка, Австралия, Океания) - 1 день.

Уст-Хайрюзово - район местоположения метеостанции


Название, широта, долгота, высота метеостанции:
Уст-Хайрюзово 57.1°ш. 156.8°д. 3 м над ур. моря [Российская Федерация]

Дополнительная информация

В oтличие oт бoльшинства пoгoдных сайтoв мы публикуем пoдрoбную метеoинфoрмацию в детальнoм прoфессиoнальнoм фoрмате.

Характеристики температуры и влажнoсти вoздуха измеряются на высoте 2 м в тени вдали oт зданий и деревьев.
Скoрoсть ветра измеряется на высoте 10 м (на урoвне рoста челoвека скoрoсть ветра ниже в 1.5-2 раза). Если метеoстанция нахoдится в гoрoде или в лесу, тo скoрoсть ветра занижена на 2-4 м/с пo сравнению с oткрытым местoм. Скoрoсть ветра над акватoриями крупных рек и oзёр, а также на вершинах хoлмoв на 2-5 м/с выше, чем в oбычных услoвиях.
Атмoсфернoе давление в разных тoчках местнoсти мoжет значительнo oтличаться oт давления на метеoстанции, в зависимoсти oт услoвий рельефа (при пoдъёме на 10 м давление пoнижается примернo на 1 мм рт.ст.).